STARLINK-1741 (46567 NORAD) Tracking and Keplerian Element Data

This shows tracking and keplerian element data for the satellite.

Feedback or suggestion? Click here.




ElementValue
Catalog46567
NameSTARLINK-1741
Epoch Orbit1831
Epoch Day27.25001157
Epoch Year2021
RAAN259.7256
Inclination53.0776
Eccentricity0.0002225
Argument of Perigee83.2059
Mean Anonmoly264.0852
Mean Motion15.06404971
Decay Rate-0.00031853
L11 46567U 20070AM 21027.25001157 -.00031853 00000-0 -21287-2 0 9994
L22 46567 53.0776 259.7256 0002225 83.2059 264.0852 15.06404971 18319

Live tracking and technical data element details for STARLINK-1741 (NORAD 46567). STARLINK-1741 can be tracked NOW for your location showing map with azimuth and elevation plus other details from your city location.

Track the satellite on the map from your city or location and see movement details for azimuth, elevation, latitude, longitude, range, height, and movement on the map or in text.







IsCatalogInMostPopularTable: catalog: 46567, numindb: 46
Update: records affected: 1



GetName: 46567 STARLINK-1741

Hit Count: updated at: Thu, 28 Jan 2021 11:18:58 GMT